Torna al catalogo

HARBINGER

AttivoScienzaSSO
NORAD 68440·PAYLOAD·🇺🇸 United States
Questo nome del satellite non è ancora stato confermato da fonti ufficiali.

Lanciato Mar 30, 2026 da Vandenberg Space Force Base

Loading…

Prossimi Passaggi (prossime 24 ore)

TLE

AggiornatoSource: Space-Track

Epoca: Sep 14, 2026, 07:33 UTC

1 68440U 26067AA  26257.31516055  .00014722  00000-0  61804-3 0  9999
2 68440  97.4588 215.0516 0004826  99.4598 260.7185 15.23553049 25507

Traccia HARBINGER in tempo reale con AllMySat

Download on the App Store